| time (UTC) | temp F | wind direction | speed knots | gust knots | rain 1hr in | rain 24hr in | rain mn in | humidity % | barometer mb |
| 20260906113004 | 69 | 27 | 0.9 | 0.9 | 0.00 | 0.00 | 0.00 | 93 | 1019.7 |
| 20260906112459 | 70 | 51 | 0.9 | 0.9 | 0.00 | 0.00 | 0.00 | 93 | 1019.7 |
| 20260906111955 | 70 | 42 | 0.0 | 0.0 | 0.00 | 0.00 | 0.00 | 92 | 1019.7 |
| 20260906111454 | 70 | 38 | 0.0 | 0.0 | 0.00 | 0.00 | 0.00 | 92 | 1019.8 |
| 20260906110949 | 70 | 34 | 0.0 | 0.0 | 0.00 | 0.00 | 0.00 | 92 | 1019.8 |
| 20260906110444 | 70 | 54 | 0.0 | 0.0 | 0.00 | 0.00 | 0.00 | 92 | 1019.7 |
| 20260906105943 | 70 | 52 | 0.0 | 0.0 | 0.00 | 0.00 | 0.00 | 92 | 1019.7 |
| 20260906105439 | 70 | 23 | 0.9 | 0.9 | 0.00 | 0.00 | 0.00 | 92 | 1019.8 |
| 20260906104936 | 70 | 11 | 1.7 | 1.7 | 0.00 | 0.00 | 0.00 | 92 | 1019.5 |
| 20260906104434 | 70 | 29 | 0.9 | 0.9 | 0.00 | 0.00 | 0.00 | 92 | 1019.4 |
| 20260906103933 | 70 | 32 | 0.0 | 0.0 | 0.00 | 0.00 | 0.00 | 92 | 1019.5 |
| 20260906103431 | 70 | 71 | 0.0 | 0.0 | 0.00 | 0.00 | 0.00 | 91 | 1019.2 |
| 20260906102927 | 71 | 16 | 0.9 | 0.9 | 0.00 | 0.00 | 0.00 | 91 | 1019.3 |
| 20260906102427 | 71 | 44 | 0.0 | 0.9 | 0.00 | 0.00 | 0.00 | 91 | 1019.2 |
| 20260906101921 | 71 | 27 | 0.0 | 0.9 | 0.00 | 0.00 | 0.00 | 91 | 1019.2 |
| 20260906101417 | 71 | 40 | 0.0 | 0.0 | 0.00 | 0.00 | 0.00 | 91 | 1019.2 |
| 20260906100912 | 71 | 55 | 0.0 | 0.9 | 0.00 | 0.00 | 0.00 | 90 | 1018.9 |
| 20260906100412 | 71 | 34 | 0.9 | 1.7 | 0.00 | 0.00 | 0.00 | 90 | 1019.0 |
| 20260906095906 | 71 | 59 | 0.9 | 0.9 | 0.00 | 0.00 | 0.00 | 90 | 1019.0 |
| 20260906095402 | 71 | 37 | 0.0 | 0.9 | 0.00 | 0.00 | 0.00 | 90 | 1019.1 |
| 20260906094902 | 71 | 20 | 2.6 | 2.6 | 0.00 | 0.00 | 0.00 | 90 | 1019.1 |
| 20260906094357 | 71 | 18 | 1.7 | 2.6 | 0.00 | 0.00 | 0.00 | 90 | 1018.9 |
| 20260906093853 | 71 | 17 | 0.0 | 0.9 | 0.00 | 0.00 | 0.00 | 90 | 1019.0 |
| 20260906093349 | 72 | 29 | 0.9 | 1.7 | 0.00 | 0.00 | 0.00 | 90 | 1019.2 |
| 20260906092848 | 72 | 38 | 0.0 | 0.9 | 0.00 | 0.00 | 0.00 | 90 | 1019.2 |
| 20260906092343 | 72 | 44 | 0.0 | 0.0 | 0.00 | 0.00 | 0.00 | 89 | 1019.1 |
| 20260906091839 | 72 | 31 | 0.9 | 1.7 | 0.00 | 0.00 | 0.00 | 89 | 1019.0 |
| 20260906091335 | 72 | 46 | 0.9 | 0.9 | 0.00 | 0.00 | 0.00 | 89 | 1018.9 |
| 20260906090831 | 72 | 35 | 0.0 | 0.9 | 0.00 | 0.00 | 0.00 | 89 | 1018.8 |
| 20260906090330 | 72 | 38 | 0.0 | 0.0 | 0.00 | 0.00 | 0.00 | 89 | 1018.8 |
| 20260906085830 | 72 | 30 | 1.7 | 1.7 | 0.00 | 0.00 | 0.00 | 89 | 1019.1 |
| 20260906085329 | 72 | 42 | 0.0 | 0.9 | 0.00 | 0.00 | 0.00 | 89 | 1018.9 |
| 20260906084825 | 72 | 21 | 0.0 | 0.9 | 0.00 | 0.00 | 0.00 | 89 | 1019.0 |
| 20260906084324 | 72 | 42 | 0.0 | 0.0 | 0.00 | 0.00 | 0.00 | 90 | 1018.9 |
| 20260906083819 | 72 | 31 | 0.9 | 1.7 | 0.00 | 0.00 | 0.00 | 90 | 1019.0 |
| 20260906083315 | 72 | 3 | 1.7 | 1.7 | 0.00 | 0.00 | 0.00 | 91 | 1019.0 |
| 20260906082815 | 72 | 26 | 0.9 | 0.9 | 0.00 | 0.00 | 0.00 | 91 | 1018.9 |
| 20260906082310 | 72 | 84 | 0.9 | 1.7 | 0.00 | 0.00 | 0.00 | 91 | 1018.9 |
| 20260906081805 | 72 | 15 | 0.0 | 0.0 | 0.00 | 0.00 | 0.00 | 91 | 1019.0 |
| 20260906081301 | 72 | 47 | 0.0 | 0.0 | 0.00 | 0.00 | 0.00 | 91 | 1019.0 |
| 20260906080757 | 72 | 27 | 0.9 | 0.9 | 0.00 | 0.00 | 0.00 | 91 | 1018.8 |
| 20260906080254 | 72 | 22 | 0.9 | 1.7 | 0.00 | 0.00 | 0.00 | 91 | 1018.8 |
| 20260906075753 | 71 | 7 | 0.9 | 0.9 | 0.00 | 0.00 | 0.00 | 91 | 1019.1 |
| 20260906075253 | 72 | 24 | 0.0 | 0.0 | 0.00 | 0.00 | 0.00 | 91 | 1019.0 |
| 20260906074748 | 72 | 21 | 0.0 | 0.0 | 0.00 | 0.00 | 0.00 | 91 | 1019.1 |
| 20260906074247 | 72 | 21 | 0.0 | 0.0 | 0.00 | 0.00 | 0.00 | 90 | 1019.0 |
| 20260906073747 | 72 | 18 | 0.9 | 0.9 | 0.00 | 0.00 | 0.00 | 90 | 1019.0 |
| 20260906073242 | 72 | 39 | 0.9 | 1.7 | 0.00 | 0.00 | 0.00 | 90 | 1018.9 |
| 20260906072738 | 72 | 50 | 0.0 | 0.0 | 0.00 | 0.00 | 0.00 | 90 | 1019.0 |
| 20260906072233 | 72 | 24 | 1.7 | 1.7 | 0.00 | 0.00 | 0.00 | 90 | 1019.3 |
| 20260906071729 | 72 | 50 | 0.0 | 0.0 | 0.00 | 0.00 | 0.00 | 91 | 1019.2 |
| 20260906071229 | 72 | 20 | 0.0 | 0.0 | 0.00 | 0.00 | 0.00 | 91 | 1019.2 |
| 20260906070726 | 72 | 32 | 0.0 | 0.0 | 0.00 | 0.00 | 0.00 | 91 | 1019.3 |
| 20260906070221 | 72 | 33 | 0.0 | 0.0 | 0.00 | 0.00 | 0.00 | 91 | 1019.4 |
| 20260906065721 | 72 | 43 | 0.0 | 0.0 | 0.00 | 0.00 | 0.00 | 91 | 1019.0 |
| 20260906065216 | 72 | 13 | 1.7 | 1.7 | 0.00 | 0.00 | 0.00 | 91 | 1019.1 |
| 20260906064711 | 72 | 34 | 0.0 | 0.0 | 0.00 | 0.00 | 0.00 | 91 | 1019.2 |
| 20260906064207 | 72 | 38 | 0.9 | 1.7 | 0.00 | 0.00 | 0.00 | 91 | 1019.1 |
| 20260906063702 | 72 | 37 | 1.7 | 2.6 | 0.00 | 0.00 | 0.00 | 91 | 1019.2 |
| 20260906063157 | 72 | 29 | 0.9 | 0.9 | 0.00 | 0.00 | 0.00 | 92 | 1019.2 |
| 20260906062653 | 72 | 75 | 0.0 | 0.0 | 0.00 | 0.00 | 0.00 | 91 | 1019.0 |
| 20260906062152 | 72 | 118 | 0.9 | 0.9 | 0.00 | 0.00 | 0.00 | 91 | 1019.1 |
| 20260906061648 | 72 | 3 | 0.9 | 1.7 | 0.00 | 0.00 | 0.00 | 91 | 1019.3 |
| 20260906061148 | 72 | 45 | 0.9 | 1.7 | 0.00 | 0.00 | 0.00 | 91 | 1019.0 |
| 20260906060645 | 72 | 15 | 0.0 | 0.0 | 0.00 | 0.00 | 0.00 | 91 | 1019.3 |
| 20260906060142 | 73 | 52 | 0.0 | 0.9 | 0.00 | 0.00 | 0.00 | 91 | 1019.3 |
| 20260906055637 | 73 | 83 | 0.0 | 0.9 | 0.00 | 0.00 | 0.00 | 91 | 1019.2 |
| 20260906055132 | 73 | 347 | 1.7 | 2.6 | 0.00 | 0.00 | 0.00 | 91 | 1019.4 |
| 20260906054627 | 73 | 33 | 0.9 | 1.7 | 0.00 | 0.00 | 0.00 | 91 | 1019.1 |
| 20260906054122 | 73 | 39 | 0.0 | 0.0 | 0.00 | 0.00 | 0.00 | 91 | 1019.3 |
| 20260906053619 | 73 | 14 | 1.7 | 2.6 | 0.00 | 0.00 | 0.00 | 91 | 1019.2 |
| 20260906053114 | 73 | 13 | 0.9 | 1.7 | 0.00 | 0.00 | 0.00 | 91 | 1019.0 |
| 20260906052610 | 73 | 41 | 0.9 | 0.9 | 0.00 | 0.00 | 0.00 | 91 | 1019.0 |
| 20260906052106 | 73 | 20 | 0.9 | 0.9 | 0.00 | 0.00 | 0.00 | 91 | 1019.1 |
| 20260906051602 | 73 | 58 | 1.7 | 2.6 | 0.00 | 0.00 | 0.00 | 91 | 1018.7 |
| 20260906051057 | 73 | 151 | 3.5 | 3.5 | 0.00 | 0.00 | 0.00 | 91 | 1018.9 |
| 20260906050552 | 73 | 67 | 1.7 | 3.5 | 0.00 | 0.00 | 0.00 | 91 | 1018.8 |
| 20260906050048 | 73 | 117 | 1.7 | 1.7 | 0.00 | 0.00 | 0.00 | 91 | 1018.9 |
| 20260906045545 | 73 | 15 | 3.5 | 3.5 | 0.00 | 0.00 | 0.00 | 91 | 1019.0 |
| 20260906045041 | 73 | 55 | 0.9 | 0.9 | 0.00 | 0.00 | 0.00 | 91 | 1018.7 |
| 20260906044537 | 73 | 31 | 3.5 | 5.2 | 0.00 | 0.00 | 0.00 | 91 | 1018.7 |
| 20260906044032 | 73 | 51 | 0.9 | 0.9 | 0.00 | 0.00 | 0.00 | 90 | 1018.5 |
| 20260906043527 | 73 | 80 | 0.9 | 1.7 | 0.00 | 0.00 | 0.00 | 90 | 1018.6 |
| 20260906043024 | 72 | 27 | 0.0 | 0.9 | 0.00 | 0.00 | 0.00 | 90 | 1018.5 |
| 20260906042522 | 72 | 135 | 0.9 | 1.7 | 0.00 | 0.00 | 0.00 | 90 | 1018.2 |
| 20260906042017 | 72 | 57 | 1.7 | 2.6 | 0.00 | 0.00 | 0.00 | 90 | 1018.2 |
| 20260906041514 | 72 | 45 | 1.7 | 2.6 | 0.00 | 0.00 | 0.00 | 90 | 1018.2 |
| 20260906041013 | 72 | 17 | 7.8 | 9.6 | 0.00 | 0.00 | 0.00 | 90 | 1018.2 |
| 20260906040508 | 72 | 49 | 0.9 | 1.7 | 0.00 | 0.00 | 0.00 | 90 | 1018.0 |
| 20260906040004 | 72 | 35 | 4.3 | 5.2 | 0.00 | 0.00 | 0.00 | 90 | 1017.9 |
| 20260906035459 | 72 | 347 | 1.7 | 3.5 | 0.00 | 0.00 | 0.00 | 90 | 1018.1 |
| 20260906034955 | 72 | 53 | 2.6 | 5.2 | 0.00 | 0.00 | 0.00 | 90 | 1018.1 |
| 20260906034454 | 73 | 74 | 1.7 | 1.7 | 0.00 | 0.00 | 0.00 | 90 | 1018.1 |
| 20260906033949 | 73 | 39 | 1.7 | 2.6 | 0.00 | 0.00 | 0.00 | 89 | 1018.0 |
| 20260906033444 | 73 | 50 | 1.7 | 1.7 | 0.00 | 0.00 | 0.00 | 89 | 1018.0 |
| 20260906032940 | 73 | 21 | 0.9 | 0.9 | 0.00 | 0.00 | 0.00 | 89 | 1018.2 |
| 20260906032437 | 73 | 85 | 0.9 | 1.7 | 0.00 | 0.00 | 0.00 | 89 | 1018.2 |
| 20260906031937 | 73 | 56 | 0.0 | 0.9 | 0.00 | 0.00 | 0.00 | 89 | 1018.3 |
| 20260906031432 | 73 | 55 | 0.9 | 0.9 | 0.00 | 0.00 | 0.00 | 89 | 1018.0 |
| 20260906030927 | 73 | 43 | 1.7 | 1.7 | 0.00 | 0.00 | 0.00 | 89 | 1018.2 |
| 20260906030422 | 73 | 21 | 0.9 | 0.9 | 0.00 | 0.00 | 0.00 | 89 | 1018.3 |
| 20260906025916 | 73 | 20 | 0.0 | 0.9 | 0.00 | 0.00 | 0.00 | 89 | 1018.1 |
| 20260906025410 | 73 | 350 | 3.5 | 5.2 | 0.00 | 0.00 | 0.00 | 88 | 1018.1 |
| 20260906024909 | 73 | 31 | 3.5 | 3.5 | 0.00 | 0.00 | 0.00 | 88 | 1018.0 |
| 20260906024408 | 73 | 12 | 3.5 | 3.5 | 0.00 | 0.00 | 0.00 | 88 | 1018.2 |
| 20260906023904 | 73 | 28 | 0.0 | 0.9 | 0.00 | 0.00 | 0.00 | 88 | 1018.0 |
| 20260906023401 | 73 | 65 | 2.6 | 2.6 | 0.00 | 0.00 | 0.00 | 88 | 1017.9 |
| 20260906022900 | 73 | 5 | 1.7 | 2.6 | 0.00 | 0.00 | 0.00 | 87 | 1018.0 |
| 20260906022355 | 73 | 65 | 1.7 | 2.6 | 0.00 | 0.00 | 0.00 | 87 | 1017.7 |
| 20260906021851 | 73 | 20 | 3.5 | 7.0 | 0.00 | 0.00 | 0.00 | 87 | 1017.9 |
| 20260906021350 | 73 | 10 | 0.9 | 1.7 | 0.00 | 0.00 | 0.00 | 87 | 1018.2 |
| 20260906020845 | 73 | 147 | 2.6 | 2.6 | 0.00 | 0.00 | 0.00 | 87 | 1018.0 |
| 20260906020344 | 73 | 72 | 1.7 | 1.7 | 0.00 | 0.00 | 0.00 | 87 | 1018.1 |
| 20260906015839 | 73 | 3 | 1.7 | 2.6 | 0.00 | 0.00 | 0.00 | 87 | 1018.1 |
| 20260906015339 | 73 | 29 | 2.6 | 2.6 | 0.00 | 0.00 | 0.00 | 87 | 1018.0 |
| 20260906014838 | 73 | 49 | 0.0 | 0.0 | 0.00 | 0.00 | 0.00 | 87 | 1018.3 |
| 20260906014333 | 73 | 19 | 2.6 | 7.0 | 0.00 | 0.00 | 0.00 | 87 | 1018.2 |
| 20260906013830 | 73 | 23 | 0.9 | 0.9 | 0.00 | 0.00 | 0.00 | 87 | 1018.2 |
| 20260906013325 | 73 | 352 | 1.7 | 1.7 | 0.00 | 0.00 | 0.00 | 87 | 1018.3 |
| 20260906012820 | 73 | 349 | 0.9 | 2.6 | 0.00 | 0.00 | 0.00 | 87 | 1018.1 |
| 20260906012320 | 73 | 55 | 3.5 | 3.5 | 0.00 | 0.00 | 0.00 | 88 | 1018.4 |
| 20260906011815 | 73 | 29 | 0.9 | 1.7 | 0.00 | 0.00 | 0.00 | 88 | 1018.0 |
| 20260906011315 | 73 | 39 | 0.9 | 1.7 | 0.00 | 0.00 | 0.00 | 88 | 1018.1 |
| 20260906010811 | 73 | 55 | 3.5 | 6.1 | 0.00 | 0.00 | 0.00 | 88 | 1018.0 |
| 20260906010307 | 73 | 23 | 0.9 | 0.9 | 0.00 | 0.00 | 0.00 | 88 | 1017.9 |
| 20260906005802 | 73 | 137 | 0.9 | 1.7 | 0.00 | 0.00 | 0.00 | 88 | 1017.7 |
| 20260906005301 | 73 | 22 | 0.9 | 0.9 | 0.00 | 0.00 | 0.00 | 88 | 1017.7 |
| 20260906004800 | 73 | 35 | 3.5 | 3.5 | 0.00 | 0.00 | 0.00 | 88 | 1017.7 |
| 20260906004255 | 73 | 46 | 3.5 | 5.2 | 0.00 | 0.00 | 0.00 | 88 | 1017.6 |
| 20260906003755 | 73 | 110 | 3.5 | 5.2 | 0.00 | 0.00 | 0.00 | 89 | 1017.7 |
| 20260906003251 | 73 | 106 | 3.5 | 5.2 | 0.00 | 0.00 | 0.00 | 88 | 1017.6 |
| 20260906002747 | 73 | 62 | 3.5 | 7.8 | 0.00 | 0.00 | 0.00 | 88 | 1017.6 |
| 20260906002246 | 73 | 308 | 0.9 | 0.9 | 0.00 | 0.00 | 0.00 | 89 | 1017.3 |
| 20260906001742 | 73 | 71 | 5.2 | 6.1 | 0.00 | 0.00 | 0.00 | 88 | 1017.4 |
| 20260906001237 | 73 | 28 | 2.6 | 5.2 | 0.00 | 0.00 | 0.00 | 88 | 1017.6 |
| 20260906000732 | 73 | 6 | 1.7 | 2.6 | 0.00 | 0.00 | 0.00 | 88 | 1017.4 |
| 20260906000234 | 73 | 10 | 5.2 | 7.8 | 0.00 | 0.00 | 0.00 | 88 | 1017.5 |
| 20260905235727 | 73 | 52 | 1.7 | 2.6 | 0.00 | 0.00 | 0.00 | 88 | 1017.6 |
| 20260905235226 | 73 | 24 | 0.9 | 0.9 | 0.00 | 0.00 | 0.00 | 88 | 1017.6 |
| 20260905234722 | 73 | 80 | 0.9 | 0.9 | 0.00 | 0.00 | 0.00 | 89 | 1017.6 |
| 20260905234217 | 73 | 7 | 2.6 | 6.1 | 0.00 | 0.00 | 0.00 | 89 | 1017.7 |
| 20260905233713 | 73 | 27 | 1.7 | 2.6 | 0.00 | 0.00 | 0.00 | 89 | 1017.5 |
| 20260905233212 | 73 | 72 | 2.6 | 5.2 | 0.00 | 0.00 | 0.00 | 89 | 1017.5 |
| 20260905232707 | 73 | 7 | 7.0 | 9.6 | 0.00 | 0.00 | 0.00 | 89 | 1017.1 |
| 20260905232203 | 73 | 307 | 4.3 | 6.1 | 0.00 | 0.00 | 0.00 | 89 | 1017.2 |
| 20260905231658 | 73 | 347 | 3.5 | 6.1 | 0.00 | 0.00 | 0.00 | 89 | 1017.3 |
| 20260905231154 | 74 | 76 | 6.1 | 8.7 | 0.00 | 0.00 | 0.00 | 89 | 1017.4 |
| 20260905230650 | 74 | 28 | 2.6 | 5.2 | 0.00 | 0.00 | 0.00 | 88 | 1017.1 |
| 20260905230147 | 74 | 52 | 3.5 | 5.2 | 0.00 | 0.00 | 0.00 | 87 | 1017.1 |
| 20260905225647 | 74 | 16 | 1.7 | 2.6 | 0.00 | 0.00 | 0.00 | 87 | 1017.2 |
| 20260905225142 | 75 | 304 | 6.1 | 7.0 | 0.00 | 0.00 | 0.00 | 86 | 1017.2 |
| 20260905224642 | 75 | 28 | 6.1 | 7.8 | 0.00 | 0.00 | 0.00 | 86 | 1017.1 |
| 20260905224142 | 75 | 36 | 1.7 | 1.7 | 0.00 | 0.00 | 0.00 | 86 | 1017.2 |
| 20260905223639 | 75 | 72 | 5.2 | 7.0 | 0.00 | 0.00 | 0.00 | 86 | 1017.1 |
| 20260905223135 | 76 | 34 | 2.6 | 5.2 | 0.00 | 0.00 | 0.00 | 85 | 1017.1 |
| 20260905222631 | 77 | 348 | 4.3 | 5.2 | 0.00 | 0.00 | 0.00 | 84 | 1017.1 |
| 20260905222125 | 77 | 358 | 5.2 | 5.2 | 0.00 | 0.00 | 0.00 | 84 | 1017.4 |
| 20260905221621 | 77 | 43 | 3.5 | 6.1 | 0.00 | 0.00 | 0.00 | 83 | 1017.1 |
| 20260905221117 | 77 | 76 | 0.9 | 2.6 | 0.00 | 0.00 | 0.00 | 84 | 1017.1 |
| 20260905220613 | 77 | 28 | 2.6 | 3.5 | 0.00 | 0.00 | 0.00 | 83 | 1017.1 |
| 20260905220109 | 79 | 358 | 2.6 | 3.5 | 0.00 | 0.00 | 0.00 | 80 | 1016.8 |
| 20260905215608 | 79 | 90 | 2.6 | 5.2 | 0.00 | 0.00 | 0.00 | 80 | 1016.9 |
| 20260905215104 | 79 | 67 | 1.7 | 2.6 | 0.00 | 0.00 | 0.00 | 80 | 1017.1 |
| 20260905214601 | 79 | 53 | 1.7 | 2.6 | 0.00 | 0.00 | 0.00 | 79 | 1016.9 |
| 20260905214100 | 79 | 9 | 1.7 | 2.6 | 0.00 | 0.00 | 0.00 | 79 | 1016.9 |
| 20260905213555 | 80 | 62 | 5.2 | 7.0 | 0.00 | 0.00 | 0.00 | 77 | 1016.7 |
| 20260905213051 | 79 | 357 | 1.7 | 2.6 | 0.00 | 0.00 | 0.00 | 79 | 1016.8 |
| 20260905212551 | 80 | 18 | 0.9 | 0.9 | 0.00 | 0.00 | 0.00 | 78 | 1016.4 |
| 20260905212050 | 80 | 14 | 4.3 | 6.1 | 0.00 | 0.00 | 0.00 | 77 | 1016.5 |
| 20260905211546 | 80 | 60 | 1.7 | 2.6 | 0.00 | 0.00 | 0.00 | 77 | 1016.5 |
| 20260905211041 | 81 | 80 | 0.9 | 1.7 | 0.00 | 0.00 | 0.00 | 76 | 1016.5 |
| 20260905210537 | 80 | 351 | 1.7 | 1.7 | 0.00 | 0.00 | 0.00 | 77 | 1016.5 |
| 20260905210032 | 80 | 8 | 1.7 | 2.6 | 0.00 | 0.00 | 0.00 | 76 | 1016.7 |
| 20260905205531 | 81 | 106 | 3.5 | 6.1 | 0.00 | 0.00 | 0.00 | 75 | 1016.7 |
| 20260905205030 | 81 | 319 | 5.2 | 7.0 | 0.00 | 0.00 | 0.00 | 73 | 1016.5 |
| 20260905204525 | 81 | 65 | 1.7 | 1.7 | 0.00 | 0.00 | 0.00 | 74 | 1016.9 |
| 20260905204021 | 81 | 358 | 2.6 | 3.5 | 0.00 | 0.00 | 0.00 | 75 | 1016.4 |
| 20260905203520 | 80 | 127 | 1.7 | 1.7 | 0.00 | 0.00 | 0.00 | 76 | 1016.8 |
| 20260905203016 | 78 | 85 | 1.7 | 2.6 | 0.00 | 0.00 | 0.00 | 80 | 1016.4 |
| 20260905202511 | 78 | 35 | 5.2 | 7.0 | 0.00 | 0.00 | 0.00 | 80 | 1016.8 |
| 20260905202006 | 78 | 349 | 5.2 | 8.7 | 0.00 | 0.00 | 0.00 | 79 | 1016.9 |
| 20260905201502 | 79 | 19 | 3.5 | 3.5 | 0.00 | 0.00 | 0.00 | 79 | 1016.8 |
| 20260905201001 | 79 | 39 | 1.7 | 2.6 | 0.00 | 0.00 | 0.00 | 79 | 1016.8 |
| 20260905200457 | 79 | 16 | 3.5 | 3.5 | 0.00 | 0.00 | 0.00 | 78 | 1016.8 |
| 20260905195955 | 80 | 357 | 4.3 | 6.1 | 0.00 | 0.00 | 0.00 | 77 | 1017.0 |
| 20260905195450 | 79 | 40 | 3.5 | 5.2 | 0.00 | 0.00 | 0.00 | 78 | 1016.9 |
| 20260905194946 | 79 | 6 | 2.6 | 5.2 | 0.00 | 0.00 | 0.00 | 78 | 1016.8 |
| 20260905194445 | 79 | 34 | 0.0 | 0.0 | 0.00 | 0.00 | 0.00 | 80 | 1016.8 |
| 20260905193940 | 79 | 1 | 5.2 | 7.8 | 0.00 | 0.00 | 0.00 | 79 | 1016.8 |
| 20260905193440 | 80 | 328 | 3.5 | 5.2 | 0.00 | 0.00 | 0.00 | 78 | 1017.0 |
| 20260905192936 | 79 | 333 | 2.6 | 3.5 | 0.00 | 0.00 | 0.00 | 79 | 1016.7 |
| 20260905192431 | 80 | 306 | 0.9 | 1.7 | 0.00 | 0.00 | 0.00 | 79 | 1016.8 |
| 20260905191926 | 79 | 339 | 4.3 | 6.1 | 0.00 | 0.00 | 0.00 | 78 | 1017.1 |
| 20260905191426 | 79 | 75 | 2.6 | 3.5 | 0.00 | 0.00 | 0.00 | 80 | 1017.0 |
| 20260905190925 | 79 | 354 | 7.8 | 8.7 | 0.00 | 0.00 | 0.00 | 80 | 1017.1 |
| 20260905190423 | 79 | 39 | 1.7 | 2.6 | 0.00 | 0.00 | 0.00 | 80 | 1016.9 |
| 20260905185922 | 78 | 45 | 4.3 | 7.0 | 0.00 | 0.00 | 0.00 | 81 | 1017.2 |
| 20260905185417 | 79 | 5 | 1.7 | 5.2 | 0.00 | 0.00 | 0.00 | 81 | 1017.1 |
| 20260905184916 | 79 | 1 | 4.3 | 5.2 | 0.00 | 0.00 | 0.00 | 81 | 1017.1 |
| 20260905184411 | 79 | 115 | 3.5 | 6.1 | 0.00 | 0.00 | 0.00 | 80 | 1017.0 |
| 20260905183909 | 80 | 323 | 1.7 | 2.6 | 0.00 | 0.00 | 0.00 | 80 | 1017.1 |
| 20260905183404 | 79 | 4 | 0.9 | 2.6 | 0.00 | 0.00 | 0.00 | 80 | 1017.3 |
| 20260905182859 | 79 | 79 | 1.7 | 1.7 | 0.00 | 0.00 | 0.00 | 80 | 1017.2 |
| 20260905182358 | 79 | 30 | 0.9 | 1.7 | 0.00 | 0.00 | 0.00 | 81 | 1017.3 |
| 20260905181855 | 79 | 13 | 3.5 | 5.2 | 0.00 | 0.00 | 0.00 | 80 | 1017.2 |
| 20260905181354 | 79 | 22 | 3.5 | 5.2 | 0.00 | 0.00 | 0.00 | 81 | 1017.1 |
| 20260905180853 | 78 | 10 | 2.6 | 2.6 | 0.00 | 0.00 | 0.00 | 82 | 1017.1 |
| 20260905180349 | 78 | 29 | 1.7 | 3.5 | 0.00 | 0.00 | 0.00 | 82 | 1017.2 |
| 20260905175844 | 78 | 310 | 2.6 | 3.5 | 0.00 | 0.00 | 0.00 | 82 | 1016.9 |
| 20260905175343 | 79 | 23 | 4.3 | 6.1 | 0.00 | 0.00 | 0.00 | 81 | 1017.2 |
| 20260905174839 | 79 | 21 | 4.3 | 6.1 | 0.00 | 0.00 | 0.00 | 81 | 1017.0 |
| 20260905174334 | 79 | 338 | 3.5 | 3.5 | 0.00 | 0.00 | 0.00 | 81 | 1017.1 |
| 20260905173830 | 79 | 71 | 3.5 | 5.2 | 0.00 | 0.00 | 0.00 | 80 | 1016.9 |
| 20260905173326 | 80 | 39 | 1.7 | 2.6 | 0.00 | 0.00 | 0.00 | 80 | 1017.0 |
| 20260905172826 | 80 | 48 | 4.3 | 5.2 | 0.00 | 0.00 | 0.00 | 79 | 1017.1 |
| 20260905172324 | 80 | 107 | 2.6 | 3.5 | 0.00 | 0.00 | 0.00 | 79 | 1017.2 |
| 20260905171820 | 80 | 333 | 4.3 | 7.0 | 0.00 | 0.00 | 0.00 | 79 | 1016.9 |
| 20260905171317 | 82 | 336 | 1.7 | 2.6 | 0.00 | 0.00 | 0.00 | 76 | 1016.8 |
| 20260905170813 | 81 | 99 | 1.7 | 2.6 | 0.00 | 0.00 | 0.00 | 78 | 1017.0 |
| 20260905170308 | 80 | 70 | 0.0 | 0.9 | 0.00 | 0.00 | 0.00 | 79 | 1016.8 |
| 20260905165807 | 80 | 44 | 2.6 | 5.2 | 0.00 | 0.00 | 0.00 | 79 | 1017.1 |
| 20260905165306 | 79 | 1 | 2.6 | 3.5 | 0.00 | 0.00 | 0.00 | 81 | 1017.2 |
| 20260905164803 | 80 | 284 | 1.7 | 2.6 | 0.00 | 0.00 | 0.00 | 81 | 1017.3 |
| 20260905164258 | 80 | 69 | 1.7 | 2.6 | 0.00 | 0.00 | 0.00 | 80 | 1017.2 |
| 20260905163753 | 80 | 359 | 1.7 | 2.6 | 0.00 | 0.00 | 0.00 | 81 | 1017.3 |
| 20260905163250 | 80 | 27 | 1.7 | 2.6 | 0.00 | 0.00 | 0.00 | 81 | 1017.2 |
| 20260905162746 | 80 | 23 | 3.5 | 5.2 | 0.00 | 0.00 | 0.00 | 81 | 1017.0 |
| 20260905162245 | 79 | 279 | 1.7 | 5.2 | 0.00 | 0.00 | 0.00 | 82 | 1017.3 |
| 20260905161740 | 80 | 311 | 0.9 | 1.7 | 0.00 | 0.00 | 0.00 | 81 | 1017.2 |
| 20260905161239 | 80 | 340 | 0.9 | 1.7 | 0.00 | 0.00 | 0.00 | 81 | 1017.2 |
| 20260905160737 | 79 | 31 | 0.9 | 0.9 | 0.00 | 0.00 | 0.00 | 83 | 1017.3 |
| 20260905160237 | 80 | 345 | 1.7 | 1.7 | 0.00 | 0.00 | 0.00 | 82 | 1017.0 |
| 20260905155732 | 80 | 6 | 4.3 | 5.2 | 0.00 | 0.00 | 0.00 | 80 | 1017.0 |
| 20260905155231 | 81 | 53 | 1.7 | 2.6 | 0.00 | 0.00 | 0.00 | 80 | 1017.1 |
| 20260905154725 | 81 | 38 | 1.7 | 2.6 | 0.00 | 0.00 | 0.00 | 80 | 1016.9 |
| 20260905154222 | 81 | 78 | 1.7 | 1.7 | 0.00 | 0.00 | 0.00 | 80 | 1016.9 |
| 20260905153717 | 81 | 340 | 3.5 | 6.1 | 0.00 | 0.00 | 0.00 | 80 | 1016.9 |
| 20260905153213 | 81 | 46 | 0.9 | 1.7 | 0.00 | 0.00 | 0.00 | 79 | 1016.5 |
| 20260905152713 | 82 | 191 | 1.7 | 2.6 | 0.00 | 0.00 | 0.00 | 77 | 1016.5 |
| 20260905152207 | 81 | 100 | 1.7 | 5.2 | 0.00 | 0.00 | 0.00 | 79 | 1016.4 |
| 20260905151707 | 80 | 147 | 4.3 | 6.1 | 0.00 | 0.00 | 0.00 | 79 | 1016.4 |
| 20260905151203 | 80 | 336 | 2.6 | 2.6 | 0.00 | 0.00 | 0.00 | 79 | 1016.3 |
| 20260905150658 | 80 | 272 | 1.7 | 3.5 | 0.00 | 0.00 | 0.00 | 80 | 1016.4 |
| 20260905150156 | 80 | 131 | 0.9 | 1.7 | 0.00 | 0.00 | 0.00 | 79 | 1016.4 |
| 20260905145654 | 79 | 21 | 0.0 | 0.9 | 0.00 | 0.00 | 0.00 | 80 | 1016.5 |
| 20260905145149 | 79 | 9 | 2.6 | 3.5 | 0.00 | 0.00 | 0.00 | 82 | 1016.3 |
| 20260905144649 | 79 | 348 | 1.7 | 2.6 | 0.00 | 0.00 | 0.00 | 82 | 1016.3 |
| 20260905144149 | 80 | 37 | 1.7 | 2.6 | 0.00 | 0.00 | 0.00 | 82 | 1016.2 |
| 20260905143648 | 79 | 49 | 2.6 | 2.6 | 0.00 | 0.00 | 0.00 | 83 | 1016.4 |
| 20260905143149 | 78 | 3 | 1.7 | 2.6 | 0.00 | 0.00 | 0.00 | 85 | 1016.4 |
| 20260905142647 | 77 | 20 | 3.5 | 5.2 | 0.00 | 0.00 | 0.00 | 86 | 1016.4 |
| 20260905142147 | 78 | 72 | 4.3 | 7.0 | 0.00 | 0.00 | 0.00 | 85 | 1016.5 |
| 20260905141642 | 78 | 27 | 3.5 | 3.5 | 0.00 | 0.00 | 0.00 | 86 | 1016.1 |
| 20260905141138 | 78 | 70 | 1.7 | 2.6 | 0.00 | 0.00 | 0.00 | 87 | 1016.1 |
| 20260905140633 | 79 | 56 | 2.6 | 2.6 | 0.00 | 0.00 | 0.00 | 83 | 1015.9 |
| 20260905140133 | 80 | 69 | 0.9 | 0.9 | 0.00 | 0.00 | 0.00 | 83 | 1016.1 |
| 20260905135628 | 79 | 23 | 1.7 | 2.6 | 0.00 | 0.00 | 0.00 | 83 | 1016.2 |
| 20260905135123 | 78 | 41 | 1.7 | 1.7 | 0.00 | 0.00 | 0.00 | 86 | 1016.0 |
| 20260905134618 | 78 | 43 | 1.7 | 1.7 | 0.00 | 0.00 | 0.00 | 87 | 1016.1 |
| 20260905134116 | 78 | 343 | 5.2 | 7.8 | 0.00 | 0.00 | 0.00 | 87 | 1016.2 |
| 20260905133613 | 78 | 62 | 0.9 | 0.9 | 0.00 | 0.00 | 0.00 | 87 | 1016.4 |
| 20260905133112 | 77 | 14 | 0.9 | 0.9 | 0.00 | 0.00 | 0.00 | 89 | 1016.5 |
| 20260905132612 | 77 | 13 | 1.7 | 1.7 | 0.00 | 0.00 | 0.00 | 90 | 1016.5 |
| 20260905132107 | 76 | 352 | 5.2 | 7.0 | 0.00 | 0.00 | 0.00 | 91 | 1016.2 |
| 20260905131602 | 75 | 358 | 5.2 | 7.0 | 0.00 | 0.00 | 0.00 | 94 | 1016.2 |
| 20260905131057 | 75 | 47 | 1.7 | 1.7 | 0.00 | 0.00 | 0.00 | 95 | 1016.1 |
| 20260905130556 | 74 | 345 | 0.9 | 0.9 | 0.00 | 0.00 | 0.00 | 96 | 1016.1 |
| 20260905130051 | 74 | 19 | 0.9 | 0.9 | 0.00 | 0.00 | 0.00 | 97 | 1016.1 |
| 20260905125551 | 74 | 346 | 1.7 | 1.7 | 0.00 | 0.00 | 0.00 | 97 | 1016.0 |
| 20260905125047 | 74 | 1 | 2.6 | 3.5 | 0.00 | 0.00 | 0.00 | 97 | 1015.7 |
| 20260905124543 | 74 | 47 | 0.0 | 0.0 | 0.00 | 0.00 | 0.00 | 97 | 1015.8 |
| 20260905124039 | 74 | 36 | 1.7 | 1.7 | 0.00 | 0.00 | 0.00 | 97 | 1015.8 |
| 20260905123534 | 74 | 45 | 0.9 | 0.9 | 0.00 | 0.00 | 0.00 | 97 | 1015.5 |
| 20260905123031 | 74 | 54 | 0.0 | 1.7 | 0.00 | 0.00 | 0.00 | 96 | 1015.4 |
| 20260905122530 | 73 | 344 | 0.0 | 0.0 | 0.00 | 0.00 | 0.00 | 96 | 1015.4 |
| 20260905122025 | 73 | 349 | 0.0 | 0.9 | 0.00 | 0.00 | 0.00 | 96 | 1015.5 |
| 20260905121520 | 73 | 33 | 0.9 | 0.9 | 0.00 | 0.00 | 0.00 | 96 | 1015.4 |
| 20260905121015 | 73 | 90 | 0.9 | 1.7 | 0.00 | 0.00 | 0.00 | 96 | 1015.5 |
| 20260905120514 | 73 | 23 | 1.7 | 2.6 | 0.00 | 0.00 | 0.00 | 96 | 1015.6 |
| 20260905120011 | 73 | 14 | 0.9 | 1.7 | 0.00 | 0.00 | 0.00 | 96 | 1015.4 |
| 20260905115509 | 74 | 33 | 0.9 | 0.9 | 0.00 | 0.00 | 0.00 | 96 | 1015.1 |
| 20260905115004 | 74 | 337 | 2.6 | 2.6 | 0.00 | 0.00 | 0.00 | 96 | 1015.0 |
| 20260905114503 | 74 | 46 | 0.9 | 0.9 | 0.00 | 0.00 | 0.00 | 96 | 1014.9 |
| 20260905114002 | 74 | 70 | 0.0 | 0.0 | 0.00 | 0.00 | 0.00 | 96 | 1014.9 |
| 20260905113458 | 74 | 319 | 4.3 | 5.2 | 0.00 | 0.00 | 0.00 | 96 | 1014.8 |